STARLINK-5447, 54779

Orbit data source: Space-Track

STARLINK-5447, 54779 is a payload satellite owned by SpaceX/Seattle (US) in LEO that was launched on Sat, 17 Dec 2022 UTC via an FALCON 9 launch vehicle from the Air Force Eastern Test Range (AFETR). Payload-class satellites include a variety of spacecraft equipped with specific instruments for various scientific and technological missions. These include communications satellites like Starlink; space stations such as the ISS; scientific satellites like the Hubble; Earth observation satellites from companies like Planet Labs, Umbra, and HawkEye 360; GPS; miniature CubeSats for education and research; and military/defense satellites.

Loading next visibility...
Identifier
54779, 2022-175X
Orbit
LEO
Country
Flag of USUS
Related business
Manufacturer
SpaceX/Seattle
Mission
Operational Commercial Communications
Bus & Motor
STARLINK, Unknown motor
Mass
305 kg wet, ~290 kg dry
Launch date (UTC)
2022-12-17 (4 years ago)
Launch vehicle
FALCON 9
Launch site
Air Force Eastern Test Range (AFETR)
Object type
Payload
Rocket body
Debris
Shape & HBR
Box + 1 Pan, 10.1 m
Radar Cross Section
13.562 m², Large (>1 m²)

Expand to show TLE details & history
Last TLE update: 3 days ago

TLE from 3 days ago
0 STARLINK-5447
1 54779U 22175X   26170.73636847  .00001250  00000-0  96657-4 0  9994
2 54779  53.1601 291.0052 0001278  78.3100 281.8035 15.08830477195539
Epoch: 2026-06-19T17:40Z
TLE epoch observation values (Epoch: 2026-06-19T17:40:22.235Z)
Latitude
-0.00002°
Longitude
117.95147°
Altitude
540.483 km
Speed
7.593 km/s
True Right ascension
19h 24m 01s
True Declination
0° 00' 00"
Sunlit
Object was in full shadow at epoch
Visualization orbit readout
Latitude
Unknown
Longitude
Unknown
Altitude
Unknown
Speed
Unknown
Apparent Right ascension
Unknown
Apparent Declination
Unknown
Sunlit
N/A
Visualization observer readout
Local Sidereal Time
21:31:41
Azimuth
Unknown
Elevation
Unknown
Doppler factor
Unknown
Orbital elements
Apogee altitude
540.911 km
Perigee altitude
539.142 km
Semi-major axis
6,918.164 km
Eccentricity
0.00013
Inclination
53.1601°
RAAN
291.0052°
Arg. of periapsis
78.31°
True anomaly
281.78916°
Mean anomaly
281.8035°
Eccentric anomaly
281.79633°
Mean motion
3.77187 °/min
Orbital period
95.44 mins
BSTAR
0.000096657
Loading maneuver chart data...
Computing Atmospheric mass density...
Loading historical data...
Loading historical data...
Loading historical data...
Loading historical data...
Loading historical data...
Loading historical data...
Loading historical data...

Documentation

Showing up to 5 results
|